Location: Ailingen
(47.6833°N, 9.5000°E)
Time: 23:38:18
(UTC+00:00)

UNK - Pass Details

Date: 18 November 2025
Orbit: 655 x 672 km, 98.4° (Epoch: 11 December)

Event Time Altitude Azimuth Distance (km) Brightness Sun altitude
Rises 16:59:11 0° 11° (N) 3,035 6.8 -12.9°
Reaches altitude 10° 17:01:26 10° 8° (N) 2,116 6.1 -13.3°
Maximum altitude 17:05:59 62° 289° (WNW) 762 4.2 -14.0°
Drops below altitude 10° 17:10:31 10° 209° (SSW) 2,097 6.9 -14.7°
Sets 17:12:45 0° 206° (SSW) 3,005 7.7 -15.1°
